C/2017 S3 ( PanSTARRS )

Japanese version
Home page
Updated on August 17, 2018

---------------------------------------------------------------------

* Profile

Discovery Date September 23, 2017
Magnitude 21.5 mag
Discoverer Pan-STARRS 1 telescope (Haleakala)

* Pictures

* Orbital Elements

Epoch 2018 Aug. 30.0 TT = JDT 2458360.5
T 2018 Aug. 15.94470 TT                                 MPCW
q   0.2084538            (2000.0)            P               Q
z  -0.0004259      Peri.  255.88986     +0.21708526     -0.96396021
 +/-0.0000042      Node   171.04060     +0.20807535     +0.19963280
e   1.0000888      Incl.   99.03829     -0.95371832     -0.17586207
From 116 observations 2017 Aug. 17-2018 May 21, mean residual 0".4.

* Finding Charts

* Magnitudes Graph

        m1 = 10.0 + 5 log d + 10.0 log r

---------------------------------------------------------------------

The orbital elements are published on M.P.E.C. 2018-K95.
The charts are made with StellaNavigator Ver.10 (AstroArts).
The magnitudes graphs are made with Comet for Windows.

---------------------------------------------------------------------

Copyright(C) Seiichi Yoshida (comet@aerith.net). All rights reserved.